GLOBALSTAR M069

Last updated on Mon Sep 21 2026 00:03:12 GMT+0000 (Coordinated Universal Time)

1 31573U 07020C 26263.45403675 -.00000059 00000+0 31080-3 0 9990 2 31573 52.0067 342.4838 0001509 354.8246 87.8375 12.23475092890460
UTC large
Height (km)
Speed (km/s)
/
Latitude / Longitude
Inclination (degrees)
Orbital Period (minutes)
Azimuth
Elevation
Range (km)
Doppler Factor

Next 0 passes for location: London (51.5072 / 0.1276)

No passes found over London.
GLOBALSTAR M069